星链-34094 (STARLINK-34094)

导读

STARLINK-34094是美国SpaceX星链星座中的一颗卫星,于2025年5月4日由美国发射升空。星链项目旨在构建全球卫星互联网星座,为全球提供高速低延迟宽带服务,这颗卫星的入轨进一步扩充了星链星座的在轨规模,推动其全球网络覆盖与服务能力的建设进程。

Basic Information
目录编号:
63822
目录名称:
STARLINK-34094
国际标识:
2025-092U
轨道中心:
EARTH
卫星名称:
星链-34094
卫星全名:
星链-34094 (STARLINK-34094)
卫星状态:
在轨 (已飞行489 天)
发射日期:
2025-05-04 UTC
国别 :
美国 (US)
星等 :
--
Orbit Information
数据来源 国际轨道数据
星历时间: 2026-09-04T08:18:28+0800
1天前
查看轨道信息
半长轴: 6861.164km
偏心率: 0.0002217
轨道倾角: 42.998°
近地点辐角 284.687°
升交点赤经 242.256°
平近点角 75.373°
近地点: 481.505km
远地点: 484.549km
周期: 94.266分钟
每日圈数: 15.275874
Detailed Information
固有亮度:
5
最大亮度:
2.5
卫星平台:
Starlink V1.0
覆盖范围:
全球
运营商:
太空探索技术公司
运营商所在国:
美国
制造商(研发单位):
太空探索技术公司
制造商所在国:
美国
使用方式:
暂无
Satellite Introduction
Starlink 计划是 SpaceX 推出的全球卫星互联网项目,通过发射低轨道卫星,为全球尤其是偏远地区提供高速、低延迟的互联网服务。自 2019 年起,Starlink 已部署数千颗卫星,旨在缩小全球数字鸿沟,推动互联网普及。该项目还为军事、航空等行业提供通信支持,带来广泛经济效益。
2D Orbit Map
3D Orbit Map
Orbit Altitude Analysis Chart
Orbit Inclination Analysis Chart
Orbit Comprehensive Analysis Chart
View Comprehensive Chart
Conjunction Data List
Event ID Objects TCA Miss Dist (km) Collision Risk Probability Collision Risk Index (CRI) Action
CDM_260907-061405-919906-382221
2026-09-07T
06:14:40+0000
0.201 km
中距离
6.035497E-4 高风险 0.91
CDM_260906-191705-706306-382221
2026-09-06T
19:17:39+0000
0.547 km
远距离
8.582525E-5 中风险 0.74
CDM_260907-131805-919906-382221
2026-09-07T
13:18:21+0000
0.933 km
远距离
1.922915E-5 中风险 0.61
CDM_260907-055405-547706-382221
2026-09-07T
05:54:04+0000
1.129 km
极远距离
1.361363E-5 中风险 0.58
CDM_260903-190605-706306-382221
2026-09-03T
19:06:28+0000
1.173 km
极远距离
7.412538E-6 低风险 0.52
CDM_260907-022105-706306-382222
2026-09-07T
02:21:20+0000
1.213 km
极远距离
6.620791E-6 低风险 0.51
CDM_260903-173205-706306-382222
2026-09-03T
17:32:18+0000
1.247 km
极远距离
6.012292E-6 低风险 0.51
CDM_260907-004705-706306-382221
2026-09-07T
00:47:11+0000
1.302 km
极远距离
5.200884E-6 低风险 0.49
CDM_260907-041905-547706-382221
2026-09-07T
04:19:55+0000
1.689 km
极远距离
3.578841E-6 低风险 0.46
CDM_260907-145205-919906-382221
2026-09-07T
14:52:30+0000
2.126 km
极远距离
1.484835E-6 低风险 0.38